DELTA 1 DEB, 7043

Orbit data source: Space-Track

DELTA 1 DEB, 7043 is space debris in SSO originally from a launch on Tue, 06 Nov 1973 UTC launched from the Air Force Western Test Range (AFWTR). Debris objects in space refer to the collection of defunct objects orbiting the Earth. Examples of debris include non-operational satellites, rocket bodies, and fragments generated from explosions, collisions, or faulty payload assembly.

Loading next visibility...
Identifier
7043, 1973-086AK
Orbit
SSO
Country
Flag of USUS
Related business
Manufacturer
Unknown
Mission
Spacecraft
Bus & Motor
Unknown
Mass
Unknown
Launch date (UTC)
1973-11-06 (52 years ago)
Launch vehicle
Unknown
Launch site
Air Force Western Test Range (AFWTR)
Object type
Payload
Rocket body
Debris
Shape & HBR
Unknown
Radar Cross Section
Small (<0.1 m²)

Expand to show TLE details & history
Last TLE update: 7 hours ago

TLE from 7 hours ago
0 DELTA 1 DEB
1 07043U 73086AK  25259.62284674  .00000068  00000-0  43690-3 0  9999
2 07043 102.1633 295.5564 0217282  68.9385  51.8852 12.85347500429435
Epoch: 2025-09-16T14:56Z
TLE epoch observation values (Epoch: 2025-09-16T14:56:53.958Z)
Latitude
55.33867°
Longitude
-86.41082°
Altitude
1,228.049 km
Speed
7.293 km/s
True Right ascension
08h 54m 29s
True Declination
55° 11' 15"
Sunlit
Object was in daylight at epoch
Visualization orbit readout
Latitude
Unknown
Longitude
Unknown
Altitude
Unknown
Speed
Unknown
Apparent Right ascension
Unknown
Apparent Declination
Unknown
Sunlit
N/A
Visualization observer readout
Local Sidereal Time
14:29:37
Azimuth
Unknown
Elevation
Unknown
Doppler factor
Unknown
Orbital elements
Apogee altitude
1,484.782 km
Perigee altitude
1,150.355 km
Semi-major axis
7,695.705 km
Eccentricity
0.02173
Inclination
102.1633°
RAAN
295.5564°
Arg. of periapsis
68.9385°
True anomaly
53.87714°
Mean anomaly
51.8852°
Eccentric anomaly
52.87785°
Mean motion
3.21492 °/min
Orbital period
111.98 mins
BSTAR
0.0004369
Loading maneuver chart data...
Computing Atmospheric mass density...
Loading historical data...
Loading historical data...
Loading historical data...
Loading historical data...
Loading historical data...
Loading historical data...
Loading historical data...

Documentation

Showing up to 5 results
|